TimePDT,TemperatureF,Dew PointF,Humidity,Sea Level PressureIn,VisibilityMPH,Wind Direction,Wind SpeedMPH,Gust SpeedMPH,PrecipitationIn,Events,Conditions,WindDirDegrees,DateUTC
12:53 AM,52.0,43.0,71,29.96,10.0,Calm,Calm,-,N/A,,Clear,0,2013-06-16 07:53:00
1:53 AM,48.0,42.1,80,29.98,10.0,Calm,Calm,-,N/A,,Clear,0,2013-06-16 08:53:00
2:53 AM,48.0,42.1,80,29.97,10.0,South,3.5,-,N/A,,Clear,170,2013-06-16 09:53:00
3:53 AM,46.0,39.9,79,29.97,10.0,Calm,Calm,-,N/A,,Clear,0,2013-06-16 10:53:00
4:53 AM,45.0,39.0,80,29.98,10.0,Calm,Calm,-,N/A,,Clear,0,2013-06-16 11:53:00
5:53 AM,43.0,39.9,89,30.00,10.0,Calm,Calm,-,N/A,,Clear,0,2013-06-16 12:53:00
6:53 AM,50.0,44.1,80,30.00,10.0,Calm,Calm,-,N/A,,Clear,0,2013-06-16 13:53:00
7:53 AM,55.9,45.0,67,30.01,10.0,Calm,Calm,-,N/A,,Clear,0,2013-06-16 14:53:00
8:53 AM,62.1,46.9,58,30.01,10.0,SSW,3.5,-,N/A,,Clear,210,2013-06-16 15:53:00
9:53 AM,64.9,45.0,48,30.01,10.0,SSW,3.5,-,N/A,,Partly Cloudy,200,2013-06-16 16:53:00
10:53 AM,69.1,43.0,39,30.01,10.0,Calm,Calm,-,N/A,,Partly Cloudy,0,2013-06-16 17:53:00
11:53 AM,71.1,41.0,34,30.01,10.0,South,5.8,-,N/A,,Partly Cloudy,180,2013-06-16 18:53:00
12:53 PM,75.9,37.9,25,29.99,10.0,SW,8.1,-,N/A,,Clear,220,2013-06-16 19:53:00
1:53 PM,75.9,35.1,23,29.99,10.0,Variable,4.6,-,N/A,,Partly Cloudy,0,2013-06-16 20:53:00
2:53 PM,77.0,28.9,17,29.97,10.0,NW,5.8,18.4,N/A,,Partly Cloudy,310,2013-06-16 21:53:00
3:53 PM,77.0,28.9,17,29.97,10.0,Variable,4.6,-,N/A,,Partly Cloudy,0,2013-06-16 22:53:00
4:53 PM,79.0,30.0,17,29.96,10.0,WNW,12.7,20.7,N/A,,Partly Cloudy,290,2013-06-16 23:53:00
5:53 PM,78.1,32.0,19,29.97,10.0,West,18.4,-,N/A,,Scattered Clouds,260,2013-06-17 00:53:00
6:53 PM,73.9,39.0,28,29.98,10.0,WNW,16.1,23.0,N/A,,Clear,290,2013-06-17 01:53:00
7:53 PM,69.1,39.9,35,30.00,10.0,WNW,15.0,-,N/A,,Clear,290,2013-06-17 02:53:00
8:53 PM,64.0,42.1,45,30.02,10.0,WNW,6.9,-,N/A,,Clear,290,2013-06-17 03:53:00
9:53 PM,59.0,42.1,53,30.04,10.0,WNW,8.1,-,N/A,,Clear,290,2013-06-17 04:53:00
10:53 PM,57.0,42.1,57,30.05,10.0,WNW,6.9,-,N/A,,Clear,300,2013-06-17 05:53:00
11:53 PM,54.0,43.0,66,30.05,10.0,West,3.5,-,N/A,,Clear,260,2013-06-17 06:53:00